DW2919 Weather Reports


time (UTC)temp
C
wind
direction
speed
KPH
gust
KPH
rain 1hr
cm
rain 24hr
cm
rain mn
cm
humidity
%
barometer
mb
20260506163113 12 355 17.7 30.6 0.00 0.00 0.00 74 1009.3
20260506161602 13 324 16.1 32.2 0.00 0.00 0.00 72 1009.2
20260506160008 13 360 17.7 25.7 0.00 0.00 0.00 72 1009.2
20260506154620 13 350 17.7 30.6 0.00 0.00 0.00 74 1009.2
20260506153115 13 28 17.7 30.6 0.00 0.00 0.00 75 1009.3
20260506151556 13 355 17.7 29.0 0.00 0.00 0.00 75 1009.3
20260506150049 14 355 19.3 32.2 0.00 0.00 0.00 74 1009.3
20260506144616 13 355 20.9 30.6 0.00 0.00 0.00 74 1009.2
20260506143100 13 348 17.7 29.0 0.00 0.00 0.00 74 1009.1
20260506141504 13 5 14.5 29.0 0.00 0.00 0.00 74 1009.0
20260506140106 13 5 17.7 29.0 0.00 0.00 0.00 73 1009.0
20260506134502 13 360 17.7 29.0 0.00 0.00 0.00 73 1009.0
20260506133117 13 26 17.7 32.2 0.00 0.00 0.00 72 1009.0
20260506131607 13 34 19.3 33.8 0.00 0.00 0.00 73 1008.9
20260506130023 13 350 14.5 25.7 0.00 0.00 0.00 74 1008.8
20260506124506 13 355 17.7 32.2 0.00 0.00 0.00 76 1008.7
20260506123102 13 341 11.3 30.6 0.00 0.00 0.00 78 1008.7
20260506121524 12 355 16.1 29.0 0.00 0.00 0.00 79 1008.6
20260506120039 12 355 16.1 25.7 0.00 0.00 0.00 79 1008.7
20260506114616 12 349 16.1 30.6 0.00 0.00 0.00 79 1008.7
20260506113024 12 5 16.1 30.6 0.00 0.00 0.00 79 1008.7
20260506111626 12 345 17.7 29.0 0.00 0.00 0.00 79 1008.7
20260506110051 12 5 20.9 29.0 0.00 0.00 0.00 80 1008.7
20260506104648 12 5 17.7 32.2 0.00 0.00 0.00 80 1008.8
20260506103111 11 5 16.1 29.0 0.00 0.00 0.00 82 1008.8
20260506101601 11 15 12.9 30.6 0.00 0.00 0.00 83 1008.7
20260506100008 11 5 17.7 29.0 0.00 0.00 0.00 84 1008.7
20260506094620 10 19 16.1 24.1 0.00 0.00 0.00 85 1008.7
20260506093108 10 36 19.3 29.0 0.00 0.00 0.00 83 1008.6
20260506091600 10 16 16.1 29.0 0.00 0.00 0.00 81 1008.6
20260506090023 11 19 16.1 32.2 0.00 0.00 0.00 81 1008.4
20260506084507 11 19 12.9 24.1 0.00 0.00 0.00 82 1008.2
20260506083122 11 5 17.7 30.6 0.00 0.00 0.00 81 1008.2
20260506081611 11 20 16.1 32.2 0.00 0.00 0.00 80 1008.1
20260506080106 11 18 20.9 30.6 0.00 0.00 0.00 81 1008.0
20260506073112 11 22 14.5 30.6 0.00 0.00 0.00 82 1008.0
20260506071518 11 355 20.9 30.6 0.00 0.00 0.00 81 1008.0
20260506061536 10 349 17.7 25.7 0.00 0.00 0.00 85 1007.8
20260506060127 9 11 14.5 19.3 0.00 0.00 0.00 86 1007.9
20260506044502 8 5 9.7 17.7 0.00 0.00 0.00 87 1007.8
20260506043100 8 15 11.3 16.1 0.00 0.00 0.00 87 1007.9
20260506041544 8 11 8.0 12.9 0.00 0.00 0.00 86 1007.9
20260506040031 8 12 8.0 14.5 0.00 0.00 0.00 86 1007.9
20260506034616 8 16 8.0 19.3 0.00 0.00 0.00 86 1007.9
20260506033052 8 18 8.0 16.1 0.00 0.00 0.00 86 1008.0
20260506031518 8 13 9.7 14.5 0.00 0.00 0.00 86 1008.0
20260506030015 8 38 12.9 19.3 0.00 0.00 0.00 86 1007.9
20260506024620 8 5 9.7 19.3 0.00 0.00 0.00 86 1008.1
20260506023106 8 11 9.7 17.7 0.00 0.00 0.00 86 1008.1
20260506021558 8 13 9.7 19.3 0.00 0.00 0.00 86 1008.1
20260506020126 8 24 9.7 17.7 0.00 0.00 0.00 87 1008.2
20260506014616 8 17 11.3 19.3 0.00 0.00 0.00 87 1008.2
20260506013059 8 26 11.3 17.7 0.00 0.00 0.00 87 1008.3
20260506011506 8 10 11.3 19.3 0.00 0.00 0.00 87 1008.3
20260506010122 8 9 11.3 17.7 0.00 0.00 0.00 87 1008.2
20260506004611 8 14 11.3 17.7 0.00 0.00 0.00 86 1008.4
20260506003058 8 5 11.3 17.7 0.00 0.00 0.00 86 1008.4
20260506001523 8 19 9.7 19.3 0.00 0.00 0.00 86 1008.6
20260506000013 8 5 12.9 19.3 0.00 0.00 0.00 86 1008.7
20260505234628 8 18 12.9 20.9 0.00 0.00 0.00 86 1008.7
20260505233053 8 15 11.3 19.3 0.00 0.00 0.00 86 1008.7
20260505231648 8 11 9.7 19.3 0.00 0.00 0.00 87 1008.8
20260505230114 9 5 12.9 17.7 0.00 0.00 0.00 87 1008.6
20260505224604 9 9 11.3 19.3 0.00 0.00 0.00 87 1008.8
20260505223059 9 12 11.3 16.1 0.00 0.00 0.00 86 1008.8
20260505221515 9 17 9.7 19.3 0.00 0.00 0.00 86 1008.9
20260505220004 10 12 11.3 20.9 0.00 0.00 0.00 86 1008.8
20260505214621 10 15 11.3 20.9 0.00 0.00 0.00 85 1008.6
20260505213021 10 18 12.9 22.5 0.00 0.00 0.00 85 1008.7
20260505211506 10 24 14.5 25.7 0.00 0.00 0.00 85 1008.7
20260505210122 10 29 12.9 24.1 0.00 0.00 0.00 84 1008.7
20260505204612 10 11 16.1 29.0 0.00 0.00 0.00 85 1008.7
20260505203116 10 5 12.9 24.1 0.00 0.00 0.00 85 1008.7
20260505201504 10 30 17.7 30.6 0.00 0.00 0.00 85 1008.6
20260505200117 10 5 12.9 29.0 0.00 0.00 0.00 84 1008.5
20260505194615 10 50 14.5 25.7 0.00 0.00 0.00 84 1008.4
20260505193053 10 32 16.1 25.7 0.00 0.00 0.00 83 1008.4
20260505191626 11 17 14.5 29.0 0.00 0.00 0.00 83 1008.4
20260505190049 11 32 16.1 30.6 0.00 0.00 0.00 82 1008.2
20260505184514 11 26 17.7 30.6 0.00 0.00 0.00 81 1008.2
20260505183126 11 11 17.7 25.7 0.00 0.00 0.00 81 1008.1
20260505181554 12 42 19.3 30.6 0.00 0.00 0.00 79 1008.0
20260505180018 12 15 16.1 33.8 0.00 0.00 0.00 78 1008.0
20260505174505 12 17 20.9 30.6 0.00 0.00 0.00 78 1008.0
20260505173120 13 5 19.3 32.2 0.00 0.00 0.00 77 1008.0
20260505171609 13 13 19.3 30.6 0.00 0.00 0.00 77 1008.0
20260505170055 13 26 19.3 32.2 0.00 0.00 0.00 76 1008.0
20260505164540 14 15 20.9 33.8 0.00 0.00 0.00 75 1007.8